Springfield, OH

10:59 AM EDT on March 27, 2017 (GMT -0400)
Springfield-Beckley Municipal

Weather History for KSGH - August, 2013

Change the Weather History Date:

Thursday, August 8, 2013

  Actual Average (KFFO) Record (KFFO)
Temperature  
Mean Temperature 75 °F -  
Max Temperature 82 °F 81 °F 99 °F (2007)
Min Temperature 68 °F 61 °F 55 °F (2002)
Cooling Degree Days 10    
Growing Degree Days 25 (Base 50)    
Moisture  
Dew Point 72 °F    
Average Humidity 97    
Maximum Humidity 100    
Minimum Humidity 79    
Precipitation  
Precipitation 1.10 in - - ()
Sea Level Pressure  
Sea Level Pressure 29.96 in    
Wind  
Wind Speed 3 mph (South)    
Max Wind Speed 14 mph    
Max Gust Speed 18 mph    
Visibility 2 miles    
Events Fog , Rain , Thunderstorm    
Averages and records for this station are not official NWS values.
T = Trace of Precipitation, MM = Missing Value Source: NWS Daily Summary

Daily Weather History Graph

Daily Weather History Graph

Search for Another Location

Airport or City:

Trip Planner

Search our weather history database for the weather conditions in past years. The results will help you decide how hot, cold, wet, or windy it might be!

Date:

Astronomy

Aug. 08, 2013 Rise Set
Actual Time 6:40 AM EDT 8:40 PM EDT
Civil Twilight 6:11 AM EDT 9:09 PM EDT
Nautical Twilight 5:35 AM EDT 9:45 PM EDT
Astronomical Twilight 4:56 AM EDT 10:24 PM EDT
Moon 8:26 AM EDT (8/8) 9:18 PM EDT (8/8)
Length of Visible Light 14h 58m
Length of Day
13h 59m
Waxing Crescent, 3% of the Moon is Illuminated
Aug 8
Waxing Crescent
Aug 14
First Quarter
Aug 20
Full
Aug 28
Last Quarter
Sep 5
New

Hourly Weather History & Observations

Time (EDT) Temp. Heat Index Dew Point Humidity Pressure Visibility Wind Dir Wind Speed Gust Speed Precip Events Conditions
12:56 AM 70.9 °F - 70.0 °F 97% 29.94 in 4.0 mi Calm Calm - N/A   Scattered Clouds
1:56 AM 70.0 °F - 70.0 °F 100% 29.94 in 3.0 mi Calm Calm - N/A   Clear
2:42 AM 69.8 °F - 69.8 °F 100% 29.96 in 2.5 mi SE 4.6 mph - N/A   Clear
2:56 AM 70.0 °F - 70.0 °F 100% 29.93 in 3.0 mi South 5.8 mph - N/A   Clear
3:56 AM 72.0 °F - 72.0 °F 100% 29.94 in 3.0 mi SSW 4.6 mph - N/A   Partly Cloudy
4:04 AM 73.4 °F - 73.4 °F 100% 29.97 in 3.0 mi SSW 6.9 mph - N/A Thunderstorm Mostly Cloudy
4:06 AM 73.4 °F - 73.4 °F 100% 29.97 in 3.0 mi SSW 9.2 mph - N/A Thunderstorm Mostly Cloudy
4:28 AM 73.4 °F - 71.6 °F 94% 29.96 in 4.0 mi SSW 5.8 mph - 0.00 in Rain Light Rain
4:35 AM 73.4 °F - 71.6 °F 94% 29.96 in 4.0 mi SSW 3.5 mph - 0.00 in Rain Light Rain
4:49 AM 71.6 °F - 71.6 °F 100% 29.95 in 4.0 mi Calm Calm - 0.00 in Rain Light Rain
4:56 AM 72.0 °F - 72.0 °F 100% 29.93 in 4.0 mi South 4.6 mph - 0.00 in   Scattered Clouds
5:56 AM 70.0 °F - 70.0 °F 100% 29.93 in 3.0 mi South 3.5 mph - N/A   Clear
6:34 AM 69.8 °F - 69.8 °F 100% 29.96 in 2.5 mi Calm Calm - N/A   Clear
6:39 AM 69.8 °F - 69.8 °F 100% 29.96 in 1.2 mi Calm Calm - N/A   Clear
6:41 AM 69.8 °F - 69.8 °F 100% 29.96 in 0.8 mi Calm Calm - N/A   Clear
6:45 AM 68.0 °F - 68.0 °F 100% 29.96 in 0.2 mi Calm Calm - N/A Fog Fog
6:56 AM 68.0 °F - 68.0 °F 100% 29.93 in 0.2 mi Calm Calm - N/A Fog Fog
7:03 AM 68.0 °F - 68.0 °F 100% 29.95 in 0.2 mi Calm Calm - N/A Fog Fog
7:10 AM 69.8 °F - 69.8 °F 100% 29.95 in 0.5 mi Calm Calm - N/A Fog Fog
7:12 AM 69.8 °F - 69.8 °F 100% 29.95 in 1.0 mi South 3.5 mph - N/A   Mostly Cloudy
7:14 AM 69.8 °F - 69.8 °F 100% 29.95 in 1.5 mi Calm Calm - N/A   Mostly Cloudy
7:19 AM 69.8 °F - 69.8 °F 100% 29.96 in 1.0 mi Calm Calm - N/A   Mostly Cloudy
7:22 AM 69.8 °F - 69.8 °F 100% 29.96 in 0.5 mi Calm Calm - N/A Fog Fog
7:28 AM 69.8 °F - 69.8 °F 100% 29.96 in 0.2 mi Calm Calm - N/A Fog Fog
7:56 AM 72.0 °F - 72.0 °F 100% 29.94 in 0.2 mi SSW 5.8 mph - N/A Fog Fog
8:14 AM 71.6 °F - 71.6 °F 100% 29.96 in 0.2 mi South 3.5 mph - N/A Fog Fog
8:29 AM 73.4 °F - 73.4 °F 100% 29.97 in 0.2 mi SW 6.9 mph - N/A Fog Fog
8:41 AM 73.4 °F - 73.4 °F 100% 29.97 in 0.2 mi SSW 4.6 mph - N/A Fog Fog
8:56 AM 72.9 °F - 72.9 °F 100% 29.95 in 1.0 mi SSW 5.8 mph - N/A   Overcast
9:05 AM 73.4 °F - 73.4 °F 100% 29.98 in 0.8 mi SSW 4.6 mph - N/A   Overcast
9:31 AM 73.4 °F - 73.4 °F 100% 29.98 in 1.2 mi SSW 4.6 mph - N/A   Overcast
9:41 AM 73.4 °F - 73.4 °F 100% 29.98 in 1.5 mi South 3.5 mph - N/A   Overcast
9:56 AM 73.9 °F - 72.9 °F 96% 29.96 in 1.8 mi Calm Calm - N/A   Overcast
10:14 AM 73.4 °F - 73.4 °F 100% 29.99 in 2.0 mi South 3.5 mph - N/A   Overcast
10:22 AM 75.2 °F - 73.4 °F 94% 29.99 in 2.0 mi South 4.6 mph - N/A   Overcast
10:56 AM 75.9 °F - 73.9 °F 94% 29.98 in 2.5 mi SSW 4.6 mph - N/A   Overcast
11:19 AM 75.2 °F - 73.4 °F 94% 30.01 in 3.0 mi South 3.5 mph - N/A   Overcast
11:56 AM 77.9 °F - 73.9 °F 88% 29.97 in 4.0 mi Calm Calm - N/A   Scattered Clouds
12:37 PM 80.6 °F 85.4 °F 73.4 °F 79% 29.98 in 5.0 mi South 3.5 mph - N/A   Haze
12:56 PM 79.9 °F - 74.8 °F 85% 29.96 in 4.0 mi SSW 4.6 mph - 0.00 in Rain Light Rain
1:05 PM 78.8 °F - 75.2 °F 89% 29.99 in 1.8 mi WSW 13.8 mph 18.4 mph 0.03 in Rain , Thunderstorm Thunderstorms and Rain
1:08 PM 77.0 °F - 75.2 °F 94% 29.99 in 0.8 mi SW 10.4 mph 18.4 mph 0.13 in Rain , Thunderstorm Light Thunderstorms and Rain
1:12 PM 75.2 °F - 73.4 °F 94% 29.99 in 0.2 mi SSW 5.8 mph 18.4 mph 0.26 in Fog , Rain , Thunderstorm Heavy Thunderstorms and Rain
1:21 PM 73.4 °F - 73.4 °F 100% 29.99 in 0.5 mi SSE 3.5 mph - 0.35 in Fog , Rain Heavy Rain
1:28 PM 73.4 °F - 73.4 °F 100% 29.98 in 1.0 mi Calm Calm - 0.36 in Rain Light Rain
1:30 PM 73.4 °F - 73.4 °F 100% 29.98 in 1.8 mi Calm Calm - 0.36 in Rain Light Rain
1:34 PM 73.4 °F - 73.4 °F 100% 29.98 in 3.0 mi SSE 3.5 mph - 0.36 in Rain Light Rain
1:41 PM 73.4 °F - 73.4 °F 100% 29.98 in 1.8 mi Calm Calm - 0.39 in Rain Heavy Rain
1:56 PM 75.9 °F - 73.9 °F 94% 29.95 in 4.0 mi Calm Calm - 0.40 in Rain Light Rain
2:39 PM 82.4 °F 89.5 °F 75.2 °F 79% 29.95 in 6.0 mi SSW 6.9 mph - 0.00 in Thunderstorm Haze
2:56 PM 79.9 °F - 74.8 °F 85% 29.93 in 5.0 mi SW 4.6 mph - 0.00 in Rain , Thunderstorm Light Thunderstorms and Rain
3:03 PM 80.6 °F 86.2 °F 75.2 °F 84% 29.96 in 4.0 mi WSW 5.8 mph - 0.00 in Rain , Thunderstorm Light Thunderstorms and Rain
3:19 PM 78.8 °F - 75.2 °F 89% 29.96 in 2.5 mi SW 8.1 mph - 0.00 in Rain , Thunderstorm Light Thunderstorms and Rain
3:30 PM 78.8 °F - 77.0 °F 94% 29.95 in 1.5 mi SSW 4.6 mph - 0.02 in Rain Rain
3:42 PM 78.8 °F - 77.0 °F 94% 29.95 in 3.0 mi SSW 5.8 mph - 0.02 in Rain Light Rain
3:56 PM 81.0 °F 86.7 °F 74.8 °F 82% 29.92 in 5.0 mi SSW 6.9 mph - 0.02 in   Haze
4:56 PM 81.0 °F 86.7 °F 74.8 °F 82% 29.91 in 6.0 mi South 4.6 mph - N/A   Haze
5:56 PM 77.9 °F - 73.9 °F 88% 29.94 in 6.0 mi North 9.2 mph - N/A   Scattered Clouds
6:03 PM 77.0 °F - 73.4 °F 89% 29.96 in 6.0 mi NE 9.2 mph - N/A Thunderstorm Mostly Cloudy
6:29 PM 75.2 °F - 73.4 °F 94% 29.97 in 2.0 mi NNE 11.5 mph - 0.10 in Rain , Thunderstorm Light Thunderstorms and Rain
6:31 PM 75.2 °F - 73.4 °F 94% 29.98 in 0.5 mi North 10.4 mph - 0.24 in Fog , Rain , Thunderstorm Heavy Thunderstorms and Rain
6:37 PM 73.4 °F - 73.4 °F 100% 29.97 in 0.2 mi East 10.4 mph - 0.56 in Fog , Rain , Thunderstorm Heavy Thunderstorms and Rain
6:47 PM 73.4 °F - 73.4 °F 100% 29.97 in 0.5 mi ESE 4.6 mph - 0.66 in Fog , Rain , Thunderstorm Thunderstorms and Rain
6:56 PM 72.9 °F - 72.9 °F 100% 29.95 in 3.0 mi SSE 3.5 mph - 0.66 in Rain Light Rain
7:00 PM 73.4 °F - 73.4 °F 100% 29.97 in 4.0 mi SE 5.8 mph - 0.01 in Rain , Thunderstorm Light Thunderstorms and Rain
7:25 PM 73.4 °F - 71.6 °F 94% 29.96 in 3.0 mi Calm Calm - 0.01 in Rain Light Rain
7:34 PM 73.4 °F - 73.4 °F 100% 29.95 in 3.0 mi SSE 3.5 mph - 0.02 in Rain Light Rain
7:43 PM 73.4 °F - 73.4 °F 100% 29.95 in 5.0 mi SSE 3.5 mph - 0.02 in Rain Light Rain
7:56 PM 72.9 °F - 72.0 °F 97% 29.93 in 6.0 mi SE 4.6 mph - 0.02 in Rain Light Rain
8:56 PM 72.0 °F - 72.0 °F 100% 29.93 in 6.0 mi SSW 3.5 mph - 0.00 in   Clear
9:56 PM 72.0 °F - 72.0 °F 100% 29.94 in 5.0 mi Calm Calm - N/A   Clear
10:44 PM 71.6 °F - 71.6 °F 100% 29.97 in 2.0 mi Calm Calm - N/A   Clear
10:56 PM 70.9 °F - 70.9 °F 100% 29.96 in 3.0 mi Calm Calm - N/A   Partly Cloudy
11:24 PM 71.6 °F - 71.6 °F 100% 29.98 in 2.5 mi Calm Calm - N/A   Scattered Clouds
11:33 PM 71.6 °F - 71.6 °F 100% 29.97 in 1.8 mi SSE 3.5 mph - N/A   Mostly Cloudy
11:43 PM 71.6 °F - 71.6 °F 100% 29.97 in 1.2 mi Calm Calm - N/A   Mostly Cloudy
11:56 PM 70.9 °F - 70.9 °F 100% 29.94 in 2.5 mi SSE 3.5 mph - N/A   Partly Cloudy